ONEWEB-0033 (45142 NORAD) Tracking and Keplerian Element Data

This shows tracking and keplerian element data for the satellite.

Feedback or suggestion? Click here.




ElementValue
Catalog45142
NameONEWEB-0033
Epoch Orbit3905
Epoch Day298.25001157
Epoch Year2020
RAAN86.2975
Inclination87.9503
Eccentricity0.0018738
Argument of Perigee117.5191
Mean Anonmoly234.9321
Mean Motion13.2924812
Decay Rate1.3E-07
L11 45142U 20008M 20298.25001157 .00000013 00000-0 00000+0 0 9991
L22 45142 87.9503 86.2975 0018738 117.5191 234.9321 13.29248120 39052

Live tracking and technical data element details for ONEWEB-0033 (NORAD 45142). ONEWEB-0033 can be tracked NOW for your location showing map with azimuth and elevation plus other details from your city location.

Track the satellite on the map from your city or location and see movement details for azimuth, elevation, latitude, longitude, range, height, and movement on the map or in text.







IsCatalogInMostPopularTable: catalog: 45142, numindb: 56
Update: records affected: 1



GetName: 45142 ONEWEB-0033

Hit Count: updated at: Sat, 24 Oct 2020 23:48:47 GMT